Regional Weather Roundup
Issued by NWS

Home | Current Version | Previous Version | Graphics & Text | Print | Product List | Glossary On
Versions: 1 2 3 4 5 6 7 8 9 10 11 12 13 14 15 16 17 18 19 20 21 22 23 24 25 26 27 28 29 30 31 32 33 34 35 36 37 38 39 40 41 42 43 44 45 46 47 48 49 50
000
ASUS44 KMEG 291010
RWRTN
TENNESSEE HOURLY STATE WEATHER ROUNDUP
NATIONAL WEATHER SERVICE MEMPHIS TN
400 AM CST THU JAN 29 2015

TNZ002-004-019-021-049-052-054-088>092-291100-
WEST TENNESSEE

CITY           SKY/WX    TMP DP  RH WIND       PRES   REMARKS
MEMPHIS INTL   CLOUDY    59  39  47 SW18G31   30.02F
NWS MEMPHIS      N/A     58 N/A N/A MISG        N/A
JACKSON        CLOUDY    54  35  48 S17G28    30.01F
DYERSBURG      CLOUDY    55  30  38 S12G20    29.97F
UNION CITY     CLEAR     52  37  58 S14       29.93F
PARIS          PTCLDY    52  34  50 S20       29.96F
LEXINGTON      CLOUDY    48  28  46 S12       30.03F
SAVANNAH       MOCLDY    50  30  46 S9        30.09S
$$

TNZ008-025-027-028-033-062-065-066-291100-
NORTH MIDDLE TENNESSEE

CITY           SKY/WX    TMP DP  RH WIND       PRES   REMARKS
NASHVILLE      MOCLDY    46  27  47 SE8       30.07F
CLARKSVILLE    LGT RAIN  50  32  50 S14       29.98F
SMYRNA         MOCLDY    45  27  49 S9        30.10F
COOKEVILLE     CLEAR     39  21  48 S7        30.11F WCI  34
CROSSVILLE     MOCLDY    40  18  41 S9G17     30.14F WCI  34
$$

TNZ061-075-076-078-094-096-097-291100-
SOUTH MIDDLE TENNESSEE

CITY           SKY/WX    TMP DP  RH WIND       PRES   REMARKS
FAYETTEVILLE   CLEAR     41  25  52 MISG      30.14F
TULLAHOMA      CLEAR     43  23  45 S12       30.13F
WINCHESTER     CLEAR     41  25  52 SE7       30.17F
MCMINNVILLE    CLEAR     45  25  45 S5        30.12F
COLUMBIA       MOCLDY    48  30  49 S13       30.06F
SHELBYVILLE    CLEAR     45  28  53 S10       30.13F
$$

TNZ017-018-042-046-047-291100-
NORTHEAST TENNESSEE

CITY           SKY/WX    TMP DP  RH WIND       PRES   REMARKS
TRI CITIES     PTCLDY    25  20  81 CALM      30.20F
ELIZABETHTON   SUNNY     27  21  80 NE5       30.19F WCI  21
$$

TNZ012-013-036-069-073-074-291100-
CENTRAL EAST TENNESSEE

CITY           SKY/WX    TMP DP  RH WIND       PRES   REMARKS
KNOXVILLE      NOT AVBL
OAK RIDGE      PTCLDY    30  23  75 CALM      30.21F
GATLINBURG     SUNNY     25  21  86 CALM      30.18F
MORRISTOWN     SUNNY     28  21  74 NE3       30.18F
$$

TNZ083-085-099-291100-
SOUTHEAST TENNESSEE

CITY           SKY/WX    TMP DP  RH WIND       PRES   REMARKS
CHATTANOOGA    PTCLDY    30  25  81 CALM      30.24F
$$

SKY/WX REPORTED AS FAIR MEANS FEW OR NO CLOUDS BELOW
12 THOUSAND FEET.



USA.gov is the U.S. government's official web portal to all federal, state and local government web resources and services.